Time,TemperatureF,DewpointF,PressureIn,WindDirection,WindDirectionDegrees,WindSpeedMPH,WindSpeedGustMPH,Humidity,HourlyPrecipIn,Conditions,Clouds,dailyrainin,SoftwareType,DateUTC
2013-02-26 00:13:00,62.0,51.0,29.51,West,281,14.0,18.0,68,0.16,,,1.98,weatherlink.com 1.10,2013-02-26 06:13:00,
2013-02-26 00:28:00,61.7,51.0,29.52,WNW,287,15.0,18.0,68,0.16,,,2.02,weatherlink.com 1.10,2013-02-26 06:28:00,
2013-02-26 00:43:00,61.2,50.0,29.52,WNW,303,6.0,16.0,68,0.15,,,2.05,weatherlink.com 1.10,2013-02-26 06:43:00,
2013-02-26 00:58:00,60.8,49.0,29.52,WNW,298,14.0,16.0,66,0.13,,,2.08,weatherlink.com 1.10,2013-02-26 06:58:00,
2013-02-26 01:13:00,60.6,48.0,29.52,NW,314,9.0,15.0,64,0.13,,,2.11,weatherlink.com 1.10,2013-02-26 07:13:00,
2013-02-26 01:28:00,60.0,48.0,29.52,NW,315,5.0,15.0,64,0.11,,,2.13,weatherlink.com 1.10,2013-02-26 07:28:00,
2013-02-26 01:43:00,60.0,46.0,29.53,WNW,294,10.0,19.0,61,0.10,,,2.15,weatherlink.com 1.10,2013-02-26 07:43:00,
2013-02-26 01:58:00,59.6,46.0,29.54,WNW,302,12.0,17.0,62,0.10,,,2.18,weatherlink.com 1.10,2013-02-26 07:58:00,
2013-02-26 02:13:00,59.3,47.0,29.55,West,270,12.0,26.0,63,0.09,,,2.20,weatherlink.com 1.10,2013-02-26 08:13:00,
2013-02-26 02:28:00,58.6,46.0,29.55,NNW,332,8.0,21.0,64,0.08,,,2.21,weatherlink.com 1.10,2013-02-26 08:28:00,
2013-02-26 02:43:00,58.1,45.0,29.55,North,360,6.0,19.0,62,0.07,,,2.22,weatherlink.com 1.10,2013-02-26 08:43:00,
2013-02-26 02:58:00,57.3,44.0,29.55,NW,324,7.0,15.0,61,0.05,,,2.23,weatherlink.com 1.10,2013-02-26 08:58:00,
2013-02-26 03:13:00,56.7,42.0,29.55,WSW,247,7.0,17.0,58,0.04,,,2.24,weatherlink.com 1.10,2013-02-26 09:13:00,
2013-02-26 03:28:00,56.1,41.0,29.57,WNW,297,6.0,20.0,57,0.03,,,2.24,weatherlink.com 1.10,2013-02-26 09:28:00,
2013-02-26 03:44:00,55.5,40.0,29.56,NNW,328,4.0,16.0,57,0.04,,,2.26,weatherlink.com 1.10,2013-02-26 09:44:00,
2013-02-26 03:59:00,54.7,40.0,29.57,WSW,246,6.0,15.0,57,0.03,,,2.26,weatherlink.com 1.10,2013-02-26 09:59:00,
2013-02-26 04:14:00,54.3,40.0,29.57,WSW,256,8.0,14.0,59,0.03,,,2.27,weatherlink.com 1.10,2013-02-26 10:14:00,
2013-02-26 04:29:00,53.7,40.0,29.57,NW,319,4.0,9.0,61,0.02,,,2.27,weatherlink.com 1.10,2013-02-26 10:29:00,
2013-02-26 04:44:00,53.0,41.0,29.58,West,280,4.0,7.0,63,0.02,,,2.28,weatherlink.com 1.10,2013-02-26 10:44:00,
2013-02-26 04:59:00,52.7,39.0,29.60,NW,319,13.0,18.0,59,0.03,,,2.29,weatherlink.com 1.10,2013-02-26 10:59:00,
2013-02-26 05:14:00,52.1,38.0,29.59,NNW,337,6.0,13.0,60,0.02,,,2.29,weatherlink.com 1.10,2013-02-26 11:14:00,
2013-02-26 05:29:00,51.5,38.0,29.61,NW,307,1.0,18.0,61,0.03,,,2.30,weatherlink.com 1.10,2013-02-26 11:29:00,
2013-02-26 05:44:00,51.0,39.0,29.62,NW,312,9.0,13.0,63,0.02,,,2.30,weatherlink.com 1.10,2013-02-26 11:44:00,
2013-02-26 05:59:00,50.7,38.0,29.63,WNW,282,4.0,14.0,63,0.02,,,2.31,weatherlink.com 1.10,2013-02-26 11:59:00,
2013-02-26 06:14:00,50.1,38.0,29.64,NNW,328,10.0,18.0,64,0.02,,,0.00,weatherlink.com 1.10,2013-02-26 12:14:00,
2013-02-26 06:29:00,49.7,38.0,29.65,WNW,282,8.0,18.0,64,0.02,,,0.00,weatherlink.com 1.10,2013-02-26 12:29:00,
2013-02-26 06:44:00,49.0,37.0,29.67,WNW,294,5.0,17.0,64,0.02,,,0.01,weatherlink.com 1.10,2013-02-26 12:44:00,
2013-02-26 06:59:00,48.3,36.0,29.68,NW,323,15.0,27.0,63,0.03,,,0.02,weatherlink.com 1.10,2013-02-26 12:59:00,
2013-02-26 07:14:00,48.2,36.0,29.68,NW,323,13.0,19.0,64,0.02,,,0.02,weatherlink.com 1.10,2013-02-26 13:14:00,
2013-02-26 07:29:00,49.0,37.0,29.70,NW,321,7.0,13.0,64,0.02,,,0.02,weatherlink.com 1.10,2013-02-26 13:29:00,
2013-02-26 07:44:00,49.4,38.0,29.70,NNW,329,8.0,17.0,64,0.02,,,0.03,weatherlink.com 1.10,2013-02-26 13:44:00,
2013-02-26 07:59:00,49.8,38.0,29.70,NNW,335,4.0,20.0,63,0.02,,,0.04,weatherlink.com 1.10,2013-02-26 13:59:00,
2013-02-26 08:14:00,50.0,37.0,29.70,NNW,345,10.0,16.0,62,0.02,,,0.04,weatherlink.com 1.10,2013-02-26 14:14:00,
2013-02-26 08:29:00,50.5,38.0,29.71,NNW,344,8.0,17.0,62,0.02,,,0.04,weatherlink.com 1.10,2013-02-26 14:29:00,
2013-02-26 08:44:00,50.8,38.0,29.71,NW,310,8.0,20.0,61,0.02,,,0.05,weatherlink.com 1.10,2013-02-26 14:44:00,
2013-02-26 08:59:00,51.6,38.0,29.72,WNW,296,6.0,18.0,60,0.01,,,0.05,weatherlink.com 1.10,2013-02-26 14:59:00,
2013-02-26 09:14:00,51.9,39.0,29.72,NW,319,6.0,15.0,61,0.02,,,0.06,weatherlink.com 1.10,2013-02-26 15:14:00,
2013-02-26 09:29:00,52.4,39.0,29.72,West,277,6.0,20.0,61,0.02,,,0.06,weatherlink.com 1.10,2013-02-26 15:29:00,
2013-02-26 09:44:00,52.6,40.0,29.73,West,281,13.0,22.0,63,0.02,,,0.07,weatherlink.com 1.10,2013-02-26 15:44:00,
2013-02-26 09:59:00,52.5,40.0,29.74,WNW,283,21.0,23.0,63,0.02,,,0.07,weatherlink.com 1.10,2013-02-26 15:59:00,
2013-02-26 10:15:00,52.6,41.0,29.74,West,272,27.0,28.0,64,0.02,,,0.08,weatherlink.com 1.10,2013-02-26 16:15:00,
2013-02-26 10:30:00,52.8,41.0,29.75,WNW,300,9.0,23.0,64,0.02,,,0.08,weatherlink.com 1.10,2013-02-26 16:30:00,
2013-02-26 10:45:00,53.1,41.0,29.75,WNW,297,9.0,26.0,63,0.01,,,0.08,weatherlink.com 1.10,2013-02-26 16:45:00,
2013-02-26 11:00:00,53.9,41.0,29.75,NW,318,12.0,19.0,61,0.01,,,0.08,weatherlink.com 1.10,2013-02-26 17:00:00,
2013-02-26 11:15:00,54.5,40.0,29.75,West,275,14.0,17.0,59,0.00,,,0.08,weatherlink.com 1.10,2013-02-26 17:15:00,
2013-02-26 11:30:00,55.3,41.0,29.75,West,274,12.0,21.0,59,0.00,,,0.08,weatherlink.com 1.10,2013-02-26 17:30:00,
2013-02-26 11:45:00,54.6,41.0,29.74,West,273,6.0,25.0,60,0.00,,,0.08,weatherlink.com 1.10,2013-02-26 17:45:00,
2013-02-26 12:00:00,54.3,40.0,29.74,WSW,247,17.0,22.0,60,0.01,,,0.09,weatherlink.com 1.10,2013-02-26 18:00:00,
2013-02-26 12:15:00,55.4,41.0,29.74,West,259,7.0,19.0,59,0.01,,,0.09,weatherlink.com 1.10,2013-02-26 18:15:00,
2013-02-26 12:30:00,54.6,40.0,29.73,WNW,285,17.0,23.0,58,0.01,,,0.09,weatherlink.com 1.10,2013-02-26 18:30:00,
2013-02-26 12:45:00,54.9,40.0,29.73,West,259,13.0,23.0,58,0.01,,,0.09,weatherlink.com 1.10,2013-02-26 18:45:00,
2013-02-26 13:00:00,54.6,41.0,29.72,West,269,18.0,25.0,60,0.00,,,0.09,weatherlink.com 1.10,2013-02-26 19:00:00,
2013-02-26 13:15:00,54.9,41.0,29.72,West,262,14.0,24.0,60,0.00,,,0.09,weatherlink.com 1.10,2013-02-26 19:15:00,
2013-02-26 13:30:00,54.8,41.0,29.73,West,262,15.0,24.0,61,0.01,,,0.10,weatherlink.com 1.10,2013-02-26 19:30:00,
2013-02-26 13:45:00,54.9,42.0,29.72,West,263,18.0,25.0,62,0.01,,,0.10,weatherlink.com 1.10,2013-02-26 19:45:00,
2013-02-26 14:00:00,55.5,42.0,29.71,West,260,13.0,18.0,60,0.01,,,0.10,weatherlink.com 1.10,2013-02-26 20:00:00,
2013-02-26 14:15:00,56.4,42.0,29.72,WSW,257,15.0,19.0,59,0.01,,,0.10,weatherlink.com 1.10,2013-02-26 20:15:00,
2013-02-26 14:30:00,55.3,41.0,29.72,West,263,16.0,22.0,60,0.00,,,0.10,weatherlink.com 1.10,2013-02-26 20:30:00,
2013-02-26 14:45:00,55.9,41.0,29.72,WSW,241,17.0,20.0,58,0.00,,,0.10,weatherlink.com 1.10,2013-02-26 20:45:00,
2013-02-26 15:00:00,56.2,42.0,29.72,WSW,240,19.0,22.0,59,0.00,,,0.10,weatherlink.com 1.10,2013-02-26 21:00:00,
2013-02-26 15:15:00,56.1,43.0,29.73,West,263,14.0,19.0,61,0.00,,,0.10,weatherlink.com 1.10,2013-02-26 21:15:00,
2013-02-26 15:30:00,56.0,43.0,29.73,WSW,248,15.0,22.0,62,0.00,,,0.10,weatherlink.com 1.10,2013-02-26 21:30:00,
2013-02-26 15:45:00,55.6,43.0,29.74,WSW,240,16.0,25.0,62,0.00,,,0.10,weatherlink.com 1.10,2013-02-26 21:45:00,
2013-02-26 16:00:00,55.7,44.0,29.74,WSW,246,12.0,26.0,66,0.00,,,0.10,weatherlink.com 1.10,2013-02-26 22:00:00,
2013-02-26 16:15:00,55.7,43.0,29.75,WSW,255,15.0,26.0,63,0.00,,,0.10,weatherlink.com 1.10,2013-02-26 22:15:00,
2013-02-26 16:30:00,55.6,43.0,29.76,WSW,253,16.0,25.0,64,0.00,,,0.10,weatherlink.com 1.10,2013-02-26 22:30:00,
2013-02-26 16:45:00,55.6,43.0,29.75,West,260,13.0,26.0,63,0.01,,,0.11,weatherlink.com 1.10,2013-02-26 22:45:00,
2013-02-26 17:00:00,55.6,43.0,29.75,West,279,16.0,24.0,64,0.01,,,0.11,weatherlink.com 1.10,2013-02-26 23:00:00,
2013-02-26 17:15:00,55.4,43.0,29.76,WNW,290,10.0,22.0,63,0.01,,,0.11,weatherlink.com 1.10,2013-02-26 23:15:00,
2013-02-26 17:30:00,55.5,44.0,29.77,WNW,290,16.0,20.0,65,0.01,,,0.11,weatherlink.com 1.10,2013-02-26 23:30:00,
2013-02-26 17:45:00,55.5,45.0,29.78,NW,311,9.0,18.0,67,0.00,,,0.11,weatherlink.com 1.10,2013-02-26 23:45:00,
2013-02-26 18:00:00,55.2,44.0,29.79,WNW,283,11.0,19.0,65,0.00,,,0.11,weatherlink.com 1.10,2013-02-27 00:00:00,
2013-02-26 18:15:00,55.1,43.0,29.80,WNW,298,7.0,16.0,65,0.00,,,0.11,weatherlink.com 1.10,2013-02-27 00:15:00,
2013-02-26 18:30:00,55.1,43.0,29.80,NNW,328,11.0,14.0,65,0.00,,,0.11,weatherlink.com 1.10,2013-02-27 00:30:00,
2013-02-26 18:45:00,55.1,44.0,29.81,WNW,303,5.0,13.0,66,0.00,,,0.11,weatherlink.com 1.10,2013-02-27 00:45:00,
2013-02-26 19:00:00,54.9,44.0,29.82,NNW,336,3.0,9.0,66,0.00,,,0.11,weatherlink.com 1.10,2013-02-27 01:00:00,
2013-02-26 19:15:00,54.7,44.0,29.82,WNW,301,0.0,7.0,67,0.00,,,0.11,weatherlink.com 1.10,2013-02-27 01:15:00,
2013-02-26 19:30:00,54.6,44.0,29.83,NNW,342,1.0,6.0,67,0.00,,,0.11,weatherlink.com 1.10,2013-02-27 01:30:00,
2013-02-26 19:45:00,54.5,44.0,29.84,WNW,298,0.0,5.0,67,0.00,,,0.11,weatherlink.com 1.10,2013-02-27 01:45:00,
2013-02-26 20:00:00,54.4,44.0,29.85,WNW,292,2.0,5.0,68,0.00,,,0.11,weatherlink.com 1.10,2013-02-27 02:00:00,
2013-02-26 20:15:00,54.3,44.0,29.85,NW,309,0.0,5.0,68,0.00,,,0.11,weatherlink.com 1.10,2013-02-27 02:15:00,
2013-02-26 20:30:00,54.3,44.0,29.86,NW,309,1.0,5.0,69,0.01,,,0.12,weatherlink.com 1.10,2013-02-27 02:30:00,
2013-02-26 20:45:00,54.3,44.0,29.87,WNW,300,0.0,5.0,69,0.01,,,0.12,weatherlink.com 1.10,2013-02-27 02:45:00,
2013-02-26 21:00:00,54.3,44.0,29.87,NW,304,0.0,4.0,68,0.01,,,0.12,weatherlink.com 1.10,2013-02-27 03:00:00,
2013-02-26 21:15:00,54.4,44.0,29.87,NW,314,0.0,4.0,68,0.01,,,0.12,weatherlink.com 1.10,2013-02-27 03:15:00,
2013-02-26 21:30:00,54.4,44.0,29.88,NW,307,1.0,5.0,67,0.00,,,0.12,weatherlink.com 1.10,2013-02-27 03:30:00,
2013-02-26 21:45:00,54.4,44.0,29.88,NW,321,3.0,5.0,67,0.00,,,0.12,weatherlink.com 1.10,2013-02-27 03:45:00,
2013-02-26 22:00:00,54.4,43.0,29.88,NW,304,0.0,3.0,66,0.00,,,0.12,weatherlink.com 1.10,2013-02-27 04:00:00,
2013-02-26 22:15:00,54.2,43.0,29.89,WNW,297,0.0,1.0,67,0.00,,,0.12,weatherlink.com 1.10,2013-02-27 04:15:00,
2013-02-26 22:30:00,54.1,43.0,29.89,NW,319,0.0,3.0,67,0.00,,,0.12,weatherlink.com 1.10,2013-02-27 04:30:00,
2013-02-26 22:46:00,54.2,43.0,29.89,NW,309,0.0,2.0,66,0.00,,,0.12,weatherlink.com 1.10,2013-02-27 04:46:00,
2013-02-26 23:16:00,53.8,45.0,29.90,NW,308,0.0,1.0,72,0.00,,,0.12,weatherlink.com 1.10,2013-02-27 05:16:00,
2013-02-26 23:31:00,53.9,45.0,29.89,NW,318,0.0,3.0,73,0.00,,,0.12,weatherlink.com 1.10,2013-02-27 05:31:00,
2013-02-26 23:46:00,53.9,47.0,29.89,NNW,327,0.0,4.0,76,0.00,,,0.12,weatherlink.com 1.10,2013-02-27 05:46:00,